Home   Weather   Marseille   Past weeks

Flag for France Past Weather in Marseille, Provence-Alpes-Côte d'Azur, France — Yesterday and Last 2 Weeks

Now
43 °F

Passing clouds.


Feels Like: 40 °F
Forecast: 44 / 51 °F
Wind: 5 mph from North

Location: Marseille / Marignane

Current Time: Jan 21, 2017 at 3:27:57 am

Latest Report: Jan 21, 2017 at 2:30 am


Visibility: N/A

Pressure: 30.24 "Hg

Humidity: 71%

Dew Point: 34 °F

Location of MarseilleLocation

Past Weather in Marseille — Graph

°F

Marseille Temperature Yesterday

Maximum temperature yesterday: 55 °F (at 1:30 pm)
Minimum temperature yesterday: 28 °F (at 2:30 am)
Average temperature yesterday: 42 °F

High & Low Weather Summary for the Past Weeks

 TemperatureHumidityPressure
High57 °F (Jan 12, 2:00 pm)100% (Jan 11, 9:00 am)30.42 "Hg (Jan 11, 9:00 am)
Low21 °F (Jan 17, 7:30 am)35% (Jan 8, 6:00 am)29.74 "Hg (Jan 13, 7:30 am)
Average39 °F65%30.11 "Hg
* Reported Jan 6 2:00 am — Jan 21 2:30 am, Marseille, Weather by CustomWeather, © 2017

Note: Actual official high and low records may vary slightly from our data, if they occured in-between our weather recording intervals... More about our weather records

Advertising

Marseille Weather History for the Previous 24 Hours

Scroll right to see more
 ConditionsComfort  
Time TempWeatherWind HumidityBarometerVisibility
2:30 am
Sat, Jan 21
43 °FPassing clouds.5 mph71%30.24 "HgN/A
2:00 am41 °FClear.8 mph81%30.24 "Hg10 mi
1:30 am41 °FClear.No wind87%30.24 "Hg10 mi
1:00 am41 °FClear.2 mph87%30.27 "Hg6 mi
12:30 am41 °FClear.1 mph87%30.27 "Hg10 mi
12:00 am41 °FClear.2 mph87%30.27 "Hg5 mi
11:30 pm
Fri, Jan 20
43 °FClear.5 mph81%30.27 "Hg6 mi
11:00 pm45 °FClear.No wind76%30.27 "Hg10 mi
10:30 pm45 °FClear.2 mph76%30.27 "Hg10 mi
10:00 pm46 °FClear.1 mph71%30.27 "Hg10 mi
9:30 pm46 °FPassing clouds.3 mph71%30.27 "HgN/A
9:00 pm46 °FOvercast.8 mph71%30.27 "HgN/A
8:30 pm48 °FLight rain. Mostly cloudy.8 mph66%30.27 "HgN/A
8:00 pm48 °FLight rain. Passing clouds.6 mph58%30.30 "HgN/A
7:30 pm50 °FCool.7 mph50%30.27 "HgN/A
7:00 pm50 °FPassing clouds.7 mph50%30.27 "HgN/A
6:30 pm50 °FClear.9 mph47%30.27 "Hg10 mi
6:00 pm52 °FClear.10 mph44%30.27 "Hg10 mi
5:30 pm52 °FSunny.10 mph47%30.27 "Hg10 mi
5:00 pm54 °FSunny.13 mph41%30.27 "Hg10 mi
4:30 pm55 °FSunny.15 mph38%30.24 "Hg10 mi
4:00 pm55 °FSunny.12 mph36%30.27 "Hg10 mi
3:30 pm55 °FSunny.14 mph36%30.27 "Hg10 mi
3:00 pm55 °FSunny.17 mph36%30.27 "Hg10 mi
2:30 pm55 °FSunny.15 mph36%30.27 "Hg10 mi
2:00 pm55 °FPassing clouds.6 mph36%30.27 "HgN/A
1:30 pm55 °FPassing clouds.13 mph38%30.27 "HgN/A
1:00 pm54 °FSunny.13 mph38%30.30 "Hg10 mi
12:30 pm54 °FSunny.6 mph41%30.30 "Hg10 mi
12:00 pm50 °FPassing clouds.5 mph50%30.33 "HgN/A
11:30 am45 °FSunny.6 mph61%30.33 "Hg10 mi
11:00 am45 °FSunny.5 mph61%30.33 "Hg10 mi
10:30 am41 °FPassing clouds.No wind66%30.33 "HgN/A
10:00 am37 °FClear.3 mph75%30.33 "Hg6 mi
9:30 am36 °FSunny.2 mph75%30.33 "Hg10 mi
9:00 am32 °FClear.2 mph80%30.33 "Hg5 mi
8:30 am30 °FClear.2 mph75%30.33 "Hg5 mi
8:00 am30 °FClear.No wind80%30.33 "Hg10 mi
7:30 am28 °FClear.1 mph86%30.33 "Hg10 mi
7:00 am30 °FClear.No wind86%30.30 "Hg4 mi
6:30 am28 °FPassing clouds.2 mph80%30.30 "Hg4 mi
6:00 am28 °FClear.1 mph86%30.30 "Hg4 mi
5:30 am30 °FClear.No wind80%30.30 "Hg4 mi
5:00 am30 °FClear.No wind80%30.30 "Hg4 mi
4:30 am28 °FPassing clouds.No wind86%30.30 "Hg4 mi
4:00 am28 °FClear.5 mph86%30.33 "Hg4 mi
3:30 am28 °FClear.3 mph86%30.33 "Hg4 mi
3:00 am30 °FClear.5 mph80%30.33 "Hg4 mi
Weather by CustomWeather, © 2017

See weather overviewHow to use our weather pages